Location: Boullarre
(49.1305°N, 3.0047°E)
Time: 13:28:20
(UTC+00:00)

Cosmos 1980 Rocket - Pass Details

Date: 03 February 2023
Orbit: 828 x 851 km, 71.0° (Epoch: 21 March)

Event Time Altitude Azimuth Distance (km) Brightness Sun altitude
Rises 18:43:15 0° 256° (WSW) 3,394 6.9 -19.1°
Reaches altitude 10° 18:46:19 10° 273° (W) 2,467 5.9 -19.6°
Maximum altitude 18:50:31 21° 321° (NW) 1,830 4.3 -20.3°
Drops below altitude 10° 18:54:45 10° 9° (N) 2,485 4.5 -20.9°
Enters shadow 18:56:38 - 20° (NNE) 3,032 4.9 -21.3°
